Torna al catalogo

SL-16 DEB

AttivoLEO
NORAD 22392·DEBRIS·🇷🇺 Russia

Lanciato Dec 25, 1992 da Baikonur Cosmodrome

Loading…

Prossimi Passaggi (prossime 24 ore)

TLE

AggiornatoSource: Space-Track

Epoca: Sep 14, 2026, 07:27 UTC

1 22392U 92093CH  26257.31071968  .00002332  00000-0  23674-3 0  9993
2 22392  70.8834 226.3627 0074021 191.9167 238.3451 14.90110053777063

Traccia SL-16 DEB in tempo reale con AllMySat

Download on the App Store